Weather History for KMPV - January, 2013

Change the Weather History Date:

Thursday, January 3, 2013

  Actual Average Record
Temperature  
Mean Temperature -5 °F 18 °F  
Max Temperature 7 °F 27 °F 55 °F (2000)
Min Temperature -17 °F 8 °F -20 °F (2014)
Degree Days  
Heating Degree Days 70 48  
Month to date heating degree days 181 142  
Since 1 July heating degree days 3144 3290  
Cooling Degree Days 0 0  
Month to date cooling degree days 0  
Year to date cooling degree days 0  
Moisture  
Dew Point -12 °F    
Average Humidity 78    
Maximum Humidity 100    
Minimum Humidity 55    
Precipitation  
Precipitation T in 0.08 in 1.15 in (1960)
Month to date precipitation 0.01 0.22  
Year to date precipitation 0.01 0.22  
Sea Level Pressure  
Sea Level Pressure 30.16 in    
Wind  
Wind Speed 0 mph (ENE)    
Max Wind Speed 5 mph    
Max Gust Speed 5 mph    
Visibility 8 miles    
Events Snow    
T = Trace of Precipitation, MM = Missing Value Source: NWS Daily Summary

Daily Weather History Graph

Daily Weather History Graph

Search for Another Location

Airport or City:

Trip Planner

Search our weather history database for the weather conditions in past years. The results will help you decide how hot, cold, wet, or windy it might be!

Date:

Astronomy

Jan. 03, 2013 Rise Set
Actual Time 7:25 AM EST 4:24 PM EST
Civil Twilight 6:52 AM EST 4:57 PM EST
Nautical Twilight 6:16 AM EST 5:33 PM EST
Astronomical Twilight 5:41 AM EST 6:08 PM EST
Moon 11:12 PM EST (1/3) 10:21 AM EST (1/3)
Length of Visible Light 10h 04m
Length of Day
8h 58m
Waning Gibbous, 65% of the Moon is Illuminated
Jan 3
Waning Gibbous
Jan 4
Last Quarter
Jan 11
New
Jan 18
First Quarter
Jan 26
Full

Hourly Weather History & Observations

Time (EST) Temp. Windchill Dew Point Humidity Pressure Visibility Wind Dir Wind Speed Gust Speed Precip Events Conditions
12:51 AM -9.0 °F - -14.1 °F 79% 30.26 in 10.0 mi Calm Calm - N/A   Clear
1:51 AM -13.0 °F - -16.1 °F 86% 30.27 in 10.0 mi Calm Calm - N/A   Clear
2:51 AM -11.9 °F - -14.1 °F 90% 30.27 in 10.0 mi Calm Calm - N/A   Clear
3:51 AM -11.9 °F - -15.0 °F 86% 30.26 in 10.0 mi Calm Calm - N/A   Clear
4:51 AM -15.0 °F - -18.0 °F 86% 30.25 in 10.0 mi Calm Calm - N/A   Clear
5:51 AM -14.1 °F - -18.9 °F 79% 30.25 in 10.0 mi Calm Calm - N/A   Clear
6:51 AM -16.1 °F - -20.0 °F 82% 30.27 in 7.0 mi Calm Calm - N/A   Clear
7:43 AM -16.6 °F - -20.2 °F 84% 30.14 in 3.0 mi Calm Calm - N/A   Partly Cloudy
7:51 AM -16.1 °F - -22.0 °F 74% 30.27 in 3.0 mi Calm Calm - N/A   Haze
7:57 AM -16.6 °F - -20.2 °F 84% 30.14 in 2.0 mi Calm Calm - N/A   Partly Cloudy
8:08 AM -16.6 °F - -16.6 °F 100% 30.14 in 5.0 mi Calm Calm - N/A   Clear
8:38 AM -14.8 °F - -14.8 °F 100% 30.13 in 2.5 mi Calm Calm - N/A   Partly Cloudy
8:51 AM -14.1 °F - -14.1 °F 100% 30.25 in 4.0 mi Calm Calm - N/A   Clear
9:51 AM -11.0 °F -20.4 °F -14.1 °F 86% 30.25 in 5.0 mi ENE 3.5 mph - 0.00 in Snow Light Snow
10:51 AM -6.0 °F - -9.9 °F 83% 30.22 in 9.0 mi Calm Calm - 0.00 in   Clear
11:51 AM -2.0 °F -10.1 °F -9.0 °F 72% 30.19 in 10.0 mi ENE 3.5 mph - N/A   Clear
12:51 PM 3.0 °F - -8.0 °F 60% 30.16 in 10.0 mi Calm Calm - 0.00 in   Clear
1:51 PM 6.1 °F - -7.1 °F 55% 30.12 in 10.0 mi Calm Calm - N/A   Overcast
2:51 PM 6.1 °F - -6.0 °F 58% 30.11 in 10.0 mi Calm Calm - N/A   Overcast
3:51 PM 6.8 °F - -5.8 °F 56% 29.98 in 10.0 mi Calm Calm - N/A   Mostly Cloudy
4:51 PM 3.0 °F - -4.0 °F 73% 30.09 in 9.0 mi Calm Calm - N/A   Mostly Cloudy
5:51 PM -0.0 °F - -5.1 °F 79% 30.09 in 10.0 mi Calm Calm - N/A   Overcast
6:51 PM -0.0 °F - -5.1 °F 79% 30.09 in 10.0 mi Calm Calm - N/A   Overcast
7:51 PM -0.0 °F - -5.1 °F 79% 30.07 in 9.0 mi Calm Calm - N/A   Mostly Cloudy
8:51 PM -2.9 °F - -6.0 °F 87% 30.06 in 9.0 mi Calm Calm - N/A   Overcast
9:51 PM -2.9 °F - -7.1 °F 82% 30.05 in 8.0 mi Calm Calm - N/A   Mostly Cloudy
10:51 PM -2.9 °F - -6.0 °F 87% 30.02 in 8.0 mi Calm Calm - N/A   Overcast
11:51 PM -0.0 °F - -2.9 °F 88% 29.99 in 8.0 mi Calm Calm - N/A   Overcast